カタログに戻る

COSMOS 2251 DEB

運用中LEO
NORAD 34022·DEBRIS·🇷🇺 Russia

打ち上げ Jun 16, 1993 から Plesetsk Cosmodrome

Loading…

次のパス (今後24時間)

TLE

最新Source: Space-Track

元期: Sep 14, 2026, 21:27 UTC

1 34022U 93036HH  26257.89433562  .00000324  00000-0  11247-3 0  9991
2 34022  74.0528 121.8018 0021654 123.0765 254.8579 14.39277692921688

AllMySatでCOSMOS 2251 DEBをリアルタイム追跡

Download on the App Store